[[{"header":{"parameterUnit":"m.s-1","parameterCategory":1,"la1":30.2991,"la2":30.254,"lo1":-89.0895,"lo2":-89.0444,"dy":0.0017,"dx":0.0017,"nx":28,"ny":28,"refTime":"2025-03-09T09:00:00:Z","depth":0,"parameterNumber":2,"parameterNumberName":"U-component_of_WINDS"},"data":[0,0,0,0,0,0,0,0,0,0,0,0,0,0,0,0,0,0,0,0,0,0,0,0,0,0,0,0,0,0,0,0,0,0,0,0,0,0,0,0,0,0,0,0,0,0,0,0,0,0,0,0,0,0,0,0,0,0,2.0326,2.0326,0,2.0373,2.0373,2.0374,2.0339,2.0337,2.0336,2.0334,2.0381,2.0384,2.0387,0,0,0,0,0,0,0,0,0,0,0,0,0,2.0205,2.0208,2.0326,2.0326,2.0327,2.0373,2.0373,2.0374,2.0339,2.0337,2.0335,2.0333,2.038,2.0384,2.0387,0,0,0,0,0,0,0,0,0,0,0,0,0,2.0256,2.0209,2.0326,2.0315,2.0315,2.0373,2.0373,2.0374,2.0339,2.0337,2.0335,2.0333,2.0379,2.0383,2.0387,2.0458,0,0,2.04,2.0401,0,0,0,0,0,0,0,0,2.0253,2.026,2.0316,2.0316,2.0315,2.0348,2.0348,2.0402,2.034,2.033,2.0334,2.0331,2.0372,2.0376,2.039,2.046,2.0462,2.04,2.0402,2.0404,2.0405,0,0,0,0,0,0,0,2.0249,2.0258,2.0344,2.0317,2.0317,2.0308,2.0312,2.0358,2.0363,2.0331,2.0328,2.0334,2.0371,2.0386,2.0391,2.0463,2.04,2.0403,2.0406,2.0407,2.0594,2.0597,0,0,0,0,0,0,2.0247,2.0255,2.0343,2.0346,2.0278,2.0312,2.0317,2.034,2.0363,2.0364,2.0336,2.0332,2.0381,2.0386,2.0393,2.0477,2.0404,2.0408,2.041,2.0592,2.0595,2.0598,0,0,0,0,0,0,2.0244,2.0255,2.0341,2.03,2.031,2.0316,2.0342,2.0342,2.0357,2.0367,2.0367,2.0351,2.0379,2.0387,2.0442,2.0479,2.041,2.0413,2.0589,2.0593,2.0596,2.0648,0,0,0,0,0,0,2.0241,2.0254,2.0281,2.0301,2.0312,2.039,2.0344,2.0344,2.0364,2.0359,2.0381,2.0382,2.0378,2.0436,2.0446,2.0483,2.0416,2.0585,2.059,2.0595,2.0643,2.0653,2.0661,0,0,0,0,0,2.0237,2.0294,2.0283,2.0294,2.0346,2.0392,2.0399,2.0393,2.0367,2.0394,2.0401,2.0381,2.0473,2.0442,2.0453,2.0492,2.0583,2.0589,2.0595,2.0638,2.0651,2.0661,0,0,0,0,0,0,2.0278,2.0296,2.0284,2.0349,2.037,2.0386,2.042,2.0406,2.0435,2.0429,2.0421,2.0426,2.0484,2.0493,2.0459,2.0562,2.0524,2.0532,2.0554,2.0565,2.0574,2.0571,2.042,0,0,0,0,0,2.0295,2.0331,2.0344,2.04,2.0411,2.0414,2.0434,2.0428,2.0449,2.0457,2.0467,2.0488,2.0522,2.0544,2.0575,2.0644,2.0648,2.0676,2.0685,2.0692,2.07,2.0737,2.0749,2.0616,2.0616,2.0616,0,0,2.0329,2.0343,2.0367,2.0409,2.0424,2.0461,2.0422,2.0463,2.049,2.0463,2.0516,2.0525,2.0547,2.061,2.0638,2.0619,2.0737,2.07,2.0706,2.0709,2.0744,2.0757,2.0768,2.062,2.062,2.0619,0,0,2.0411,2.0426,2.0474,2.049,2.0514,2.0516,2.0528,2.0547,2.0552,2.0605,2.0586,2.0618,2.0676,2.0693,2.0709,2.0799,2.0782,2.081,2.0858,2.0895,2.0905,2.0914,2.0947,2.0958,2.0817,2.0817,2.0817,0,2.0451,2.0507,2.05,2.0544,2.0563,2.054,2.0589,2.0605,2.0638,2.0652,2.063,2.0703,2.0717,2.0783,2.0805,2.0819,2.0832,2.0807,2.0904,2.0914,2.0922,2.0953,2.0965,2.082,2.082,2.0819,2.0819,0,2.0555,2.0594,2.063,2.0663,2.0687,2.0732,2.0733,2.0757,2.0749,2.0753,2.0808,2.0824,2.0858,2.0874,2.0866,2.0939,2.0927,2.0905,2.0867,2.0938,2.0967,2.0978,2.0825,2.0823,2.0822,2.0822,0,0,2.0664,2.0693,2.0707,2.0722,2.0746,2.0777,2.0821,2.0856,2.0877,2.09,2.0938,2.0988,2.0968,2.0986,2.0981,2.1013,2.1084,2.0987,2.0988,2.1005,2.1166,2.1182,2.1196,2.1073,2.1075,2.1077,2.1164,0,2.0748,2.0826,2.0822,2.0896,2.0932,2.0912,2.0951,2.097,2.0976,2.1007,2.1013,2.1048,2.1019,2.1031,2.1061,2.1069,2.1116,2.1062,2.1108,2.1109,2.1103,2.1211,2.1228,2.1309,2.1175,2.1177,2.1178,0,2.0856,2.0884,2.0961,2.0981,2.0996,2.1032,2.1063,2.1093,2.1115,2.1117,2.1138,2.1127,2.1173,2.1134,2.1196,2.116,2.1178,2.1185,2.1188,2.1192,2.1148,2.1218,2.1335,2.1347,2.1196,2.1194,2.1193,0,2.0928,2.0985,2.1038,2.1052,2.1077,2.1102,2.1113,2.1133,2.1154,2.1181,2.1195,2.1227,2.1245,2.127,2.1268,2.124,2.1332,2.1293,2.1335,2.1335,2.1355,2.1353,2.1477,2.1367,2.1367,2.1366,2.1366,0,2.1022,2.107,2.1071,2.1104,2.1158,2.1153,2.1206,2.1215,2.1232,2.1267,2.1251,2.1284,2.128,2.1312,2.1311,2.1364,2.1372,2.1374,2.1373,2.1376,2.1375,2.1387,2.1382,2.137,2.1369,2.1368,2.1368,0,2.1111,2.1114,2.1171,2.119,2.1196,2.1235,2.1251,2.1283,2.1287,2.1331,2.1341,2.1347,2.1385,2.1386,2.1429,2.1429,2.1493,2.1485,2.1485,2.1484,2.1526,2.1522,2.1661,2.1679,2.1557,2.1559,2.156,0,2.1171,2.1208,2.1231,2.1253,2.1266,2.1302,2.1324,2.132,2.1343,2.1372,2.14,2.1436,2.1465,2.1527,2.1535,2.1568,2.1562,2.1608,2.1567,2.1568,2.1563,2.1561,2.1564,2.1616,2.1618,2.1619,2.162,0,2.1277,2.1277,2.1308,2.1341,2.1368,2.1393,2.1417,2.1436,2.1435,2.1462,2.1501,2.1523,2.1568,2.1604,2.1637,2.1648,2.1634,2.1633,2.1644,2.1647,2.1646,2.1647,2.1508,2.163,2.1629,2.1628,2.1627,2.1627,2.1353,2.1385,2.1407,2.1443,2.1461,2.1483,2.1514,2.1522,2.1555,2.1591,2.1587,2.163,2.1652,2.1694,2.1708,2.1742,2.1726,2.1742,2.1746,2.1751,2.1755,2.1641,2.1748,2.1748,2.1747,2.1747,2.1747,0,2.1459,2.1472,2.1505,2.1539,2.1568,2.1552,2.1578,2.1603,2.1641,2.1663,2.1692,2.1737,2.1772,2.1784,2.1818,2.1843,2.1838,2.1852,2.185,2.1853,2.1768,2.1754,2.1856,2.1856,2.1856,2.1856,2.1856,2.1856,2.1517,2.157,2.1573,2.1635,2.1647,2.169,2.1706,2.1727,2.1744,2.1795,2.1824,2.1832,2.185,2.1885,2.1917,2.192,2.1933,2.1951,2.195,2.187,2.1859,2.1849,2.1836,2.1954,2.1954,2.2033,2.2034,2.2034]},{"header":{"parameterUnit":"m.s-1","parameterCategory":1,"la1":30.2991,"la2":30.254,"lo1":-89.0895,"lo2":-89.0444,"dy":0.0017,"dx":0.0017,"nx":28,"ny":28,"refTime":"2025-03-09T09:00:00:Z","depth":0,"parameterNumber":3,"parameterNumberName":"V-component_of_WINDS"},"data":[0,0,0,0,0,0,0,0,0,0,0,0,0,0,0,0,0,0,0,0,0,0,0,0,0,0,0,0,0,0,0,0,0,0,0,0,0,0,0,0,0,0,0,0,0,0,0,0,0,0,0,0,0,0,0,0,0,0,-1.6308,-1.631,0,-1.6414,-1.6415,-1.6417,-1.6427,-1.6426,-1.6425,-1.6424,-1.6534,-1.6538,-1.6542,0,0,0,0,0,0,0,0,0,0,0,0,0,-1.6117,-1.6121,-1.6308,-1.631,-1.6311,-1.6414,-1.6416,-1.6417,-1.6428,-1.6426,-1.6425,-1.6424,-1.6533,-1.6537,-1.6542,0,0,0,0,0,0,0,0,0,0,0,0,0,-1.6209,-1.6122,-1.6308,-1.6329,-1.6332,-1.6414,-1.6416,-1.6417,-1.6428,-1.6426,-1.6425,-1.6423,-1.6531,-1.6537,-1.6543,-1.6612,0,0,-1.6561,-1.6563,0,0,0,0,0,0,0,0,-1.6204,-1.6216,-1.6324,-1.6327,-1.6331,-1.6406,-1.6388,-1.6483,-1.6428,-1.6391,-1.6424,-1.6422,-1.6493,-1.6502,-1.6525,-1.6617,-1.6622,-1.6561,-1.6565,-1.6567,-1.6569,0,0,0,0,0,0,0,-1.6198,-1.6212,-1.635,-1.6326,-1.633,-1.6333,-1.6345,-1.6406,-1.645,-1.6394,-1.6395,-1.6408,-1.6494,-1.6519,-1.6528,-1.6624,-1.6561,-1.6566,-1.657,-1.6572,-1.6779,-1.6781,0,0,0,0,0,0,-1.6187,-1.6207,-1.6347,-1.6353,-1.6262,-1.6338,-1.6351,-1.6383,-1.6449,-1.6458,-1.6409,-1.6408,-1.651,-1.6521,-1.6532,-1.6618,-1.6567,-1.6573,-1.6576,-1.6777,-1.678,-1.6782,0,0,0,0,0,0,-1.6183,-1.62,-1.6343,-1.628,-1.6299,-1.6343,-1.638,-1.6386,-1.6412,-1.646,-1.6468,-1.6427,-1.6509,-1.6523,-1.6592,-1.6622,-1.6576,-1.6581,-1.6775,-1.6778,-1.6781,-1.6791,0,0,0,0,0,0,-1.6178,-1.6198,-1.6224,-1.6281,-1.6302,-1.6401,-1.6382,-1.639,-1.6422,-1.6421,-1.6479,-1.6487,-1.6509,-1.6583,-1.6598,-1.6629,-1.6586,-1.6773,-1.6776,-1.678,-1.6788,-1.6794,-1.6799,0,0,0,0,0,-1.6171,-1.6223,-1.6226,-1.6243,-1.6336,-1.6402,-1.6415,-1.6438,-1.6424,-1.6451,-1.6483,-1.6485,-1.6616,-1.659,-1.6607,-1.6641,-1.6771,-1.6775,-1.678,-1.6786,-1.6793,-1.6799,0,0,0,0,0,0,-1.6169,-1.6231,-1.6234,-1.6306,-1.6349,-1.6404,-1.6439,-1.6445,-1.6493,-1.649,-1.6518,-1.6531,-1.6599,-1.6627,-1.6597,-1.6712,-1.6692,-1.67,-1.6691,-1.6698,-1.6703,-1.6695,-1.659,0,0,0,0,0,-1.6177,-1.6225,-1.6277,-1.6336,-1.6357,-1.6394,-1.6424,-1.6439,-1.6484,-1.6503,-1.6539,-1.6584,-1.6635,-1.6668,-1.6718,-1.6792,-1.6806,-1.6824,-1.6829,-1.6833,-1.684,-1.6882,-1.6891,-1.6796,-1.6796,-1.6796,0,0,-1.6194,-1.6234,-1.6263,-1.6336,-1.6371,-1.6421,-1.6409,-1.6463,-1.65,-1.6511,-1.6578,-1.6607,-1.6658,-1.673,-1.6764,-1.6755,-1.6869,-1.6839,-1.6842,-1.6846,-1.6888,-1.6897,-1.6904,-1.6799,-1.6799,-1.6798,0,0,-1.6251,-1.6285,-1.6338,-1.6374,-1.6427,-1.6451,-1.6464,-1.6519,-1.6538,-1.6606,-1.6615,-1.6661,-1.6748,-1.6785,-1.6815,-1.6887,-1.6892,-1.6903,-1.693,-1.6971,-1.6979,-1.6986,-1.7012,-1.7021,-1.6909,-1.6909,-1.6909,0,-1.6265,-1.6341,-1.6365,-1.6419,-1.6451,-1.6463,-1.6517,-1.655,-1.6617,-1.664,-1.6629,-1.674,-1.6776,-1.6857,-1.6875,-1.6898,-1.6915,-1.6896,-1.6976,-1.6983,-1.699,-1.7015,-1.7025,-1.691,-1.691,-1.691,-1.691,0,-1.6357,-1.6409,-1.6445,-1.6509,-1.6546,-1.66,-1.6633,-1.6667,-1.6679,-1.6705,-1.6775,-1.6818,-1.6878,-1.6898,-1.691,-1.6982,-1.6975,-1.697,-1.6951,-1.6999,-1.7024,-1.7034,-1.6912,-1.6911,-1.6911,-1.6911,0,0,-1.6415,-1.6492,-1.6505,-1.6534,-1.6594,-1.6635,-1.669,-1.6748,-1.6777,-1.6823,-1.6871,-1.6945,-1.6941,-1.6975,-1.6992,-1.7028,-1.7083,-1.7019,-1.702,-1.703,-1.7166,-1.717,-1.718,-1.7087,-1.7089,-1.709,-1.7162,0,-1.6478,-1.6575,-1.6599,-1.6683,-1.6732,-1.6744,-1.6792,-1.6835,-1.6861,-1.6907,-1.6936,-1.6989,-1.6979,-1.7,-1.7036,-1.7069,-1.7111,-1.7064,-1.7132,-1.7134,-1.7118,-1.7193,-1.7197,-1.7262,-1.7171,-1.7173,-1.7174,0,-1.6566,-1.6613,-1.6701,-1.6756,-1.6777,-1.682,-1.6875,-1.6919,-1.6968,-1.6984,-1.7023,-1.7037,-1.7095,-1.7073,-1.7155,-1.7122,-1.7152,-1.7172,-1.7175,-1.7183,-1.7157,-1.7203,-1.7284,-1.7294,-1.7189,-1.7188,-1.7187,0,-1.66,-1.6686,-1.675,-1.6775,-1.684,-1.687,-1.6898,-1.6945,-1.6979,-1.7028,-1.705,-1.7105,-1.7135,-1.7178,-1.7207,-1.7188,-1.7286,-1.7266,-1.7303,-1.7302,-1.7323,-1.7321,-1.741,-1.7341,-1.7341,-1.7341,-1.7341,0,-1.6668,-1.6722,-1.6766,-1.6806,-1.6867,-1.6894,-1.6954,-1.6983,-1.7025,-1.7071,-1.7086,-1.7129,-1.7163,-1.7211,-1.7234,-1.7299,-1.7312,-1.7328,-1.7334,-1.7327,-1.7325,-1.7347,-1.7343,-1.7343,-1.7343,-1.7342,-1.7342,0,-1.6717,-1.6748,-1.6819,-1.6875,-1.689,-1.6933,-1.6981,-1.702,-1.7047,-1.7106,-1.7121,-1.7163,-1.7221,-1.7254,-1.7326,-1.7341,-1.7414,-1.7417,-1.7397,-1.74,-1.7434,-1.7431,-1.754,-1.7556,-1.7476,-1.7477,-1.7478,0,-1.6759,-1.68,-1.686,-1.6892,-1.6921,-1.6972,-1.7006,-1.7036,-1.7071,-1.713,-1.7163,-1.7221,-1.727,-1.7361,-1.7399,-1.7455,-1.746,-1.7494,-1.7468,-1.7461,-1.7461,-1.7459,-1.7463,-1.7499,-1.75,-1.75,-1.7501,0,-1.683,-1.6844,-1.6892,-1.6947,-1.6988,-1.7033,-1.7077,-1.7102,-1.7139,-1.7179,-1.7237,-1.7275,-1.7349,-1.7407,-1.7467,-1.7497,-1.7506,-1.7509,-1.752,-1.7514,-1.7501,-1.7509,-1.741,-1.7506,-1.7505,-1.7505,-1.7505,-1.7504,-1.6877,-1.6915,-1.6963,-1.7017,-1.7054,-1.7095,-1.7135,-1.7167,-1.7217,-1.7279,-1.7294,-1.7356,-1.7405,-1.7486,-1.7518,-1.7568,-1.7561,-1.7578,-1.7582,-1.7586,-1.7587,-1.7493,-1.7578,-1.7578,-1.7578,-1.7578,-1.7578,0,-1.6949,-1.6981,-1.7031,-1.7093,-1.7136,-1.7139,-1.7189,-1.7225,-1.728,-1.7324,-1.7372,-1.744,-1.7497,-1.754,-1.7598,-1.763,-1.7636,-1.7645,-1.7643,-1.765,-1.7589,-1.7574,-1.7639,-1.7639,-1.7639,-1.7639,-1.7639,-1.7639,-1.6992,-1.7057,-1.7077,-1.716,-1.7192,-1.7253,-1.7281,-1.732,-1.7356,-1.7431,-1.7478,-1.7506,-1.755,-1.7612,-1.7665,-1.7676,-1.7698,-1.7706,-1.7718,-1.766,-1.7654,-1.7648,-1.7633,-1.771,-1.771,-1.7775,-1.7775,-1.7776]}]]